Regional Weather Roundup
Issued by NWS Jackson, KY

Home | Current Version | Previous Version | Text Only | Print | Product List | Glossary Off
Versions: 1 2 3 4 5 6 7 8 9 10 11 12 13 14 15 16 17 18 19 20 21 22 23 24 25 26 27 28 29 30 31 32 33 34 35 36 37 38 39 40 41 42 43 44 45 46 47 48 49 50

000
ASUS43 KJKL 271810
RWRJKL

EAST KENTUCKY HOURLY WEATHER ROUNDUP
NATIONAL WEATHER SERVICE JACKSON KY
200 PM EDT WED MAY 27 2015

NOTE: "FAIR" INDICATES FEW OR NO CLOUDS BELOW 12,000 FEET WITH
NO SIGNIFICANT WEATHER AND/OR OBSTRUCTIONS TO VISIBILITY.

* THESE REPORTS ARE NOT UNDER NWS QUALITY CONTROL AND MAY NOT
  REPORT WEATHER SUCH AS PRECIPITATION AND FOG.

KYZ079-080-083-085-087-088-110-112-115-119-120-271900
...EASTERN KENTUCKY...

CITY           SKY/WX    TMP DP  RH WIND       PRES   REMARKS
JACKSON        PTSUNNY   78  63  59 VRB3      30.22F
6HR MIN TEMP:  67; 6HR MAX TEMP:  78;

LONDON         PTSUNNY   79  59  50 VRB6      30.22F
6HR MIN TEMP:  68; 6HR MAX TEMP:  80;

SOMERSET*      PTSUNNY   77  63  61 S5        30.22S
MONTICELLO*    MOSUNNY   79  67  66 SW8       30.23F
6HR MIN TEMP:  70; 6HR MAX TEMP:  81;

MIDDLESBORO*   PTSUNNY   78  64  61 SE5       30.23F
6HR MIN TEMP:  68; 6HR MAX TEMP:  78;

HARLAN APT*    PTCLDY    77  59  53 W6        30.24F
HAZARD APT*    CLOUDY    81  63  54 SW5       30.22F
BLACK MTN*       N/A     68  57  68 S8          N/A
PIKEVILLE APT* MOSUNNY   77  63  61 S5        30.21F
BIG SANDY*     MOCLDY    78  64  62 SW6       30.20F
6HR MIN TEMP:  70; 6HR MAX TEMP:  78;

MOREHEAD APT*  PTCLDY    79  64  61 SW9G17    30.19F
$$

KYZ035-036-041-042-044-050-067-078-099-271900
...CENTRAL KENTUCKY...

CITY           SKY/WX    TMP DP  RH WIND       PRES   REMARKS
MT STERLING*   PTSUNNY   77  64  65 SW10G16   30.19S
FLEMING/MASON* MOSUNNY   81  66  61 SW10      30.17F
DANVILLE*      PTSUNNY   81  64  57 SW10      30.19F
RICHMOND*      PTSUNNY   81  64  57 S10       30.19S
LEXINGTON      MOSUNNY   80  65  59 SW13G21   30.16F
6HR MIN TEMP:  69; 6HR MAX TEMP:  80;

FRANKFORT      MOSUNNY   81  63  54 SW13G21   30.13F
6HR MIN TEMP:  69; 6HR MAX TEMP:  82;

$$

KYZ091>093-OHZ055-061-077-WVZ005-015-034-035-042-271900
...SOUTHERN OHIO/WEST VIRGINIA...

CITY           SKY/WX    TMP DP  RH WIND       PRES   REMARKS
COVINGTON      PTSUNNY   79  64  60 S14G21    30.12F
COLUMBUS       MOSUNNY   79  62  56 S15G22    30.10F
DAYTON         MOSUNNY   80  63  55 SW17G23   30.09F
WILMINGTON     MOSUNNY   79  62  56 SW15      30.11F
HUNTINGTON     MOSUNNY   81  64  56 SW7G20    30.16F
CHARLESTON     PTSUNNY   81  65  58 W7        30.17F
PINEVILLE*     MOSUNNY   80  64  58 MISG      30.27F
BECKLEY        PTSUNNY   77  57  50 VRB5      30.25F
BLUEFIELD      PTSUNNY   77  57  50 W7        30.28F
$$

VAZ002-007-008-TNZ017-027-036-066-071-271900
...SOUTHWEST VIRGINIA/EAST TENNESSEE...

CITY           SKY/WX    TMP DP  RH WIND       PRES   REMARKS
WISE*          MOSUNNY   77  52  41 W3        30.29F
JONESVILLE*    PTCLDY    77  59  53 W7        30.26F
ABINGDON*      PTSUNNY   78  60  52 SW5       30.26F
BRISTOL        MOSUNNY   80  58  46 NW3       30.23F
KNOXVILLE      PTSUNNY   80  59  48 W9G18     30.22F
OAK RIDGE      PTSUNNY   80  63  55 VRB5      30.24F
CROSSVILLE     MOSUNNY   77  60  55 W5        30.25F
NASHVILLE      CLOUDY    82  68  62 S9        30.16F
$$

...KEY TO REMARKS...
VSB - VISIBILITY IN MILES
WCI - WIND CHILL INDEX
HX  - HEAT INDEX

$$


USA.gov is the U.S. government's official web portal to all federal, state and local government web resources and services.